When you browse on this site, cookies collect data to enhance your experience and personalize the content and advertising you see.
Visit our Privacy Policy to learn more. By continuing to use the site, you agree to this use of cookies and data.
  • In Hungary
  • List of Countries
  • For 7 days
  • Water Temperature
  • Weather Map
  • News
  • Weather Widgets
  • user-avatar
    Login

    Hourly Weather Nurmuchash

    Today, 22 September, Sunday

    Time Temperature Precipitation Wind Pressure Humidity
    00:00 +1°C° 0 mm 2 mps 740 mmHg 88%
    01:00 +1°C° 0 mm 2 mps 739 mmHg 88%
    02:00 +1°C° 0 mm 2 mps 739 mmHg 89%
    03:00 -1°C° 0 mm 2 mps 739 mmHg 90%
    04:00 -1°C° 0 mm 2 mps 738 mmHg 90%
    05:00 -1°C° 0 mm 2 mps 738 mmHg 91%
    06:00 -1°C° 0 mm 3 mps 738 mmHg 92%
    07:00 0°C° 0 mm 3 mps 737 mmHg 87%
    08:00 +2°C° 0 mm 3 mps 737 mmHg 82%
    09:00 +3°C° 0 mm 3 mps 737 mmHg 75%
    10:00 +4°C° 0.1 mm 3 mps 736 mmHg 70%
    11:00 +7°C° 0.1 mm 3 mps 736 mmHg 64%
    12:00 +8°C° 0.1 mm 3 mps 736 mmHg 58%
    13:00 +8°C° 0.3 mm 3 mps 735 mmHg 58%
    14:00 +7°C° 0.3 mm 3 mps 735 mmHg 59%
    15:00 +7°C° 0.3 mm 3 mps 734 mmHg 59%
    16:00 +6°C° 0.1 mm 2 mps 734 mmHg 65%
    17:00 +5°C° 0.1 mm 2 mps 733 mmHg 71%
    18:00 +5°C° 0.1 mm 1 mps 733 mmHg 76%
    19:00 +3°C° 0 mm 2 mps 733 mmHg 78%
    20:00 +3°C° 0 mm 2 mps 733 mmHg 79%
    21:00 +3°C° 0 mm 2 mps 732 mmHg 80%
    22:00 +2°C° 0 mm 2 mps 732 mmHg 82%
    23:00 +1°C° 0 mm 3 mps 732 mmHg 84%

    Tomorrow, 23 September, Monday

    Time Temperature Precipitation Wind Pressure Humidity
    00:00 +1°C° 0 mm 3 mps 732 mmHg 85%
    01:00 0°C° 0 mm 3 mps 732 mmHg 87%
    02:00 -1°C° 0 mm 4 mps 733 mmHg 89%
    03:00 -1°C° 0 mm 4 mps 733 mmHg 91%
    04:00 -2°C° 0 mm 4 mps 733 mmHg 93%
    05:00 -2°C° 0 mm 5 mps 733 mmHg 94%
    06:00 -2°C° 0 mm 5 mps 734 mmHg 96%
    07:00 -2°C° 0 mm 5 mps 734 mmHg 94%
    08:00 -1°C° 0 mm 5 mps 735 mmHg 92%
    09:00 0°C° 0 mm 5 mps 736 mmHg 89%
    10:00 0°C° 0 mm 5 mps 736 mmHg 85%
    11:00 +1°C° 0 mm 5 mps 736 mmHg 81%
    12:00 +1°C° 0 mm 5 mps 737 mmHg 76%
    13:00 +3°C° 0.1 mm 4 mps 737 mmHg 74%
    14:00 +3°C° 0.1 mm 4 mps 737 mmHg 71%
    15:00 +3°C° 0.1 mm 3 mps 738 mmHg 69%
    16:00 +2°C° 0 mm 3 mps 738 mmHg 72%
    17:00 +3°C° 0 mm 2 mps 738 mmHg 76%
    18:00 +3°C° 0 mm 1 mps 739 mmHg 80%
    19:00 +2°C° 0 mm 1 mps 739 mmHg 82%
    20:00 +2°C° 0 mm 1 mps 739 mmHg 84%
    21:00 +1°C° 0 mm 1 mps 740 mmHg 86%
    22:00 +1°C° 0 mm 1 mps 740 mmHg 87%
    23:00 +1°C° 0 mm 1 mps 740 mmHg 88%

    Day after tomorrow, 24 September, Tuesday

    Time Temperature Precipitation Wind Pressure Humidity
    00:00 -1°C° 0 mm 2 mps 740 mmHg 89%
    01:00 -2°C° 0 mm 2 mps 741 mmHg 91%
    02:00 -2°C° 0 mm 2 mps 741 mmHg 94%
    03:00 -4°C° 0 mm 3 mps 742 mmHg 96%
    04:00 -4°C° 0 mm 3 mps 742 mmHg 96%
    05:00 -4°C° 0 mm 3 mps 742 mmHg 96%
    06:00 -4°C° 0 mm 3 mps 743 mmHg 97%
    07:00 -2°C° 0 mm 3 mps 743 mmHg 91%
    08:00 -2°C° 0 mm 4 mps 743 mmHg 86%
    09:00 -1°C° 0 mm 4 mps 743 mmHg 81%
    10:00 0°C° 0 mm 4 mps 744 mmHg 76%
    11:00 +1°C° 0 mm 5 mps 744 mmHg 71%
    12:00 +3°C° 0 mm 5 mps 744 mmHg 66%
    13:00 +2°C° 0.1 mm 5 mps 744 mmHg 74%
    14:00 +1°C° 0.1 mm 5 mps 744 mmHg 82%
    15:00 +1°C° 0.1 mm 5 mps 744 mmHg 90%
    16:00 0°C° 0.3 mm 5 mps 744 mmHg 92%
    17:00 0°C° 0.3 mm 5 mps 744 mmHg 94%
    18:00 0°C° 0.3 mm 4 mps 744 mmHg 96%
    19:00 0°C° 0.2 mm 4 mps 744 mmHg 96%
    20:00 0°C° 0.2 mm 4 mps 744 mmHg 95%
    21:00 0°C° 0.2 mm 4 mps 744 mmHg 95%
    22:00 -1°C° 0.1 mm 4 mps 744 mmHg 95%
    23:00 0°C° 0.1 mm 3 mps 744 mmHg 95%

    25 September, Wednesday

    Time Temperature Precipitation Wind Pressure Humidity
    00:00 0°C° 0.1 mm 3 mps 744 mmHg 95%
    01:00 0°C° 0 mm 3 mps 745 mmHg 95%
    02:00 -1°C° 0 mm 4 mps 745 mmHg 96%
    03:00 -1°C° 0 mm 4 mps 745 mmHg 96%
    04:00 -1°C° 0 mm 4 mps 745 mmHg 96%
    05:00 -1°C° 0 mm 4 mps 745 mmHg 95%
    06:00 -1°C° 0 mm 4 mps 745 mmHg 95%
    07:00 -1°C° 0 mm 4 mps 746 mmHg 92%
    08:00 0°C° 0 mm 5 mps 746 mmHg 89%
    09:00 0°C° 0 mm 5 mps 746 mmHg 85%
    10:00 +1°C° 0.1 mm 5 mps 746 mmHg 83%
    11:00 +1°C° 0.1 mm 5 mps 747 mmHg 80%
    12:00 +1°C° 0.1 mm 5 mps 747 mmHg 77%
    13:00 +2°C° 0.1 mm 5 mps 747 mmHg 77%
    14:00 +2°C° 0.1 mm 5 mps 747 mmHg 77%
    15:00 +2°C° 0.1 mm 5 mps 747 mmHg 77%
    16:00 +1°C° 0.1 mm 4 mps 748 mmHg 81%
    17:00 0°C° 0.1 mm 4 mps 748 mmHg 84%
    18:00 +1°C° 0.1 mm 3 mps 748 mmHg 88%
    19:00 0°C° 0 mm 3 mps 748 mmHg 89%
    20:00 -1°C° 0 mm 3 mps 748 mmHg 90%
    21:00 -2°C° 0 mm 3 mps 748 mmHg 91%
    22:00 -1°C° 0 mm 3 mps 748 mmHg 90%
    23:00 -1°C° 0 mm 3 mps 748 mmHg 89%

    26 September, Thursday

    Time Temperature Precipitation Wind Pressure Humidity
    00:00 -1°C° 0 mm 4 mps 748 mmHg 88%
    01:00 -2°C° 0 mm 4 mps 748 mmHg 89%
    02:00 -2°C° 0 mm 4 mps 748 mmHg 91%
    03:00 -3°C° 0 mm 4 mps 748 mmHg 92%
    04:00 -3°C° 0 mm 4 mps 748 mmHg 93%
    05:00 -3°C° 0 mm 4 mps 749 mmHg 93%
    06:00 -4°C° 0 mm 4 mps 749 mmHg 94%
    07:00 -2°C° 0 mm 4 mps 749 mmHg 89%
    08:00 -1°C° 0 mm 5 mps 749 mmHg 84%
    09:00 +1°C° 0 mm 5 mps 749 mmHg 79%
    10:00 +2°C° 0 mm 5 mps 749 mmHg 74%
    11:00 +3°C° 0 mm 5 mps 749 mmHg 69%
    12:00 +4°C° 0 mm 6 mps 749 mmHg 64%
    13:00 +5°C° 0 mm 5 mps 749 mmHg 64%
    14:00 +5°C° 0 mm 5 mps 749 mmHg 65%
    15:00 +3°C° 0 mm 5 mps 749 mmHg 65%
    16:00 +4°C° 0 mm 4 mps 748 mmHg 69%
    17:00 +3°C° 0 mm 4 mps 748 mmHg 73%
    18:00 +2°C° 0 mm 3 mps 748 mmHg 77%
    19:00 +2°C° 0 mm 3 mps 748 mmHg 78%
    20:00 +2°C° 0 mm 3 mps 748 mmHg 78%
    21:00 +1°C° 0 mm 4 mps 748 mmHg 79%
    22:00 +1°C° 0 mm 4 mps 748 mmHg 81%
    23:00 0°C° 0 mm 4 mps 747 mmHg 82%

    27 September, Friday

    Time Temperature Precipitation Wind Pressure Humidity
    00:00 0°C° 0 mm 4 mps 747 mmHg 84%
    01:00 0°C° 0 mm 4 mps 747 mmHg 84%
    02:00 0°C° 0 mm 4 mps 747 mmHg 85%
    03:00 0°C° 0 mm 4 mps 747 mmHg 86%
    04:00 0°C° 0.1 mm 4 mps 747 mmHg 89%
    05:00 0°C° 0.1 mm 5 mps 747 mmHg 93%
    06:00 0°C° 0.1 mm 5 mps 746 mmHg 96%
    07:00 0°C° 0.1 mm 5 mps 746 mmHg 95%
    08:00 +1°C° 0.1 mm 4 mps 747 mmHg 93%
    09:00 +1°C° 0.1 mm 4 mps 747 mmHg 92%
    10:00 +1°C° 0 mm 4 mps 747 mmHg 91%
    11:00 +1°C° 0 mm 4 mps 747 mmHg 90%
    12:00 +3°C° 0 mm 4 mps 748 mmHg 89%
    13:00 +3°C° 0 mm 4 mps 748 mmHg 84%
    14:00 +4°C° 0 mm 4 mps 748 mmHg 79%
    15:00 +5°C° 0 mm 5 mps 748 mmHg 74%
    16:00 +4°C° 0 mm 4 mps 748 mmHg 77%
    17:00 +3°C° 0 mm 3 mps 749 mmHg 80%
    18:00 +3°C° 0 mm 3 mps 749 mmHg 82%
    19:00 +2°C° 0 mm 3 mps 749 mmHg 81%
    20:00 +3°C° 0 mm 2 mps 749 mmHg 80%
    21:00 +3°C° 0 mm 2 mps 750 mmHg 78%
    22:00 +3°C° 0 mm 2 mps 750 mmHg 78%
    23:00 +2°C° 0 mm 2 mps 750 mmHg 78%
    Show more